Location: ?????
(37.7324°N, 23.9257°E)
Time: 21:41:42
(UTC+00:00)

Cosmos 1437 Rocket - Pass Details

Date: 29 November 2020
Orbit: 504 x 563 km, 81.2° (Epoch: 19 January)

Event Time Altitude Azimuth Distance (km) Brightness Sun altitude
Rises 04:37:22 0° 350° (N) 2,618 6.0 -8.4°
Reaches altitude 10° 04:39:30 10° 349° (N) 1,725 5.0 -8.0°
Maximum altitude 04:43:17 82° 264° (W) 514 2.6 -7.3°
Drops below altitude 10° 04:47:01 10° 175° (S) 1,709 5.7 -6.6°
Sets 04:49:08 0° 174° (S) 2,592 6.7 -6.2°
